Overview Statistics Trail Chart Weather Telemetry Raw packets
 

This is the latest recevied weather packets stored in our database for station/object N8WJW. If no packets are shown the sender has not sent any weather packets the latest 10 day(s).

<< 2 3 4 5 6 7 8 >>
Time Temp. Humidity Pressure Rain* Wind** Luminosity Snow
1788547261 21.67° C 99% 1017 hPa 0 mm - 143 W/m² -
1788546956 21.67° C 99% 1017 hPa 0 mm - 151 W/m² -
1788546651 21.67° C 99% 1017.2 hPa 0.51 mm - 92 W/m² -
1788546347 21.67° C 99% 1017 hPa 0 mm - 89 W/m² -
1788546047 21.67° C 99% 1017.4 hPa 0 mm - 97 W/m² -
1788545742 21.67° C 99% 1017.5 hPa 0 mm - 102 W/m² -
1788545437 21.67° C 99% 1017.8 hPa 0.51 mm - 109 W/m² -
1788545131 21.67° C 99% 1018.5 hPa 0.51 mm - 116 W/m² -
1788544826 21.11° C 99% 1018.4 hPa 0 mm - 83 W/m² -
1788544521 21.67° C 99% 1018.7 hPa 0 mm - 74 W/m² -
1788544219 21.67° C 99% 1018.8 hPa 0 mm - 97 W/m² -
1788543914 21.67° C 99% 1018.6 hPa 0 mm - 157 W/m² -
1788543611 21.67° C 99% 1018.8 hPa 0 mm - 186 W/m² -
1788543305 21.67° C 99% 1018.6 hPa 0 mm - 131 W/m² -
1788543000 21.11° C 99% 1018.7 hPa 0 mm - 59 W/m² -
1788542696 21.67° C 99% 1018.9 hPa 0 mm - 97 W/m² -
1788542390 21.67° C 99% 1019 hPa 0 mm - 71 W/m² -
1788542086 21.11° C 99% 1019 hPa 0 mm - 111 W/m² -
1788541782 21.11° C 99% 1019 hPa 0 mm - 92 W/m² -
1788541482 21.11° C 99% 1018.9 hPa 0 mm - 64 W/m² -
1788541177 21.11° C 99% 1018.8 hPa 0 mm - 82 W/m² -
1788540876 21.11° C 99% 1018.9 hPa 0 mm - 73 W/m² -
1788540575 21.11° C 99% 1018.9 hPa 0 mm - 43 W/m² -
1788540271 21.11° C 99% 1018.9 hPa 0.51 mm - 45 W/m² -
1788539967 21.11° C 99% 1018.9 hPa 0.51 mm - 49 W/m² -

* Rain latest hour (hover to see other rain measurements)
** Current wind speed in m/s (hover to see current wind gust speed)